This is the latest recevied weather packets stored in our database for station/object K9MWD. If no packets are shown the sender has not sent any weather packets the latest 10 day(s).
| Time | Temp. | Humidity | Pressure | Rain* | Wind** | Luminosity | Snow |
|---|---|---|---|---|---|---|---|
| 1777823267 | 22.78° C | 50% | 1022.2 hPa | 0 mm | - | 717 W/m² | - |
| 1777822965 | 22.78° C | 48% | 1022.2 hPa | 0 mm | - | 704 W/m² | - |
| 1777822663 | 23.33° C | 48% | 1022.3 hPa | 0 mm | - | 690 W/m² | - |
| 1777822360 | 22.78° C | 49% | 1022.2 hPa | 0 mm | - | 677 W/m² | - |
| 1777822058 | 22.78° C | 49% | 1022.3 hPa | 0 mm | - | 662 W/m² | - |
| 1777821756 | 22.78° C | 49% | 1022.2 hPa | 0 mm | - | 647 W/m² | - |
| 1777821452 | 22.22° C | 50% | 1022.2 hPa | 0 mm | - | 634 W/m² | - |
| 1777821150 | 22.22° C | 52% | 1022.1 hPa | 0 mm | - | 617 W/m² | - |
| 1777820847 | 22.22° C | 51% | 1021.9 hPa | 0 mm | - | 603 W/m² | - |
| 1777820543 | 22.22° C | 51% | 1022.2 hPa | 0 mm | - | 586 W/m² | - |
| 1777820239 | 21.67° C | 53% | 1022.2 hPa | 0 mm | - | 571 W/m² | - |
| 1777819937 | 21.67° C | 54% | 1022.2 hPa | 0 mm | - | 554 W/m² | - |
| 1777819634 | 21.67° C | 54% | 1022.1 hPa | 0 mm | - | 538 W/m² | - |
| 1777819332 | 21.11° C | 53% | 1022.2 hPa | 0 mm | - | 520 W/m² | - |
| 1777819028 | 21.11° C | 54% | 1022.1 hPa | 0 mm | - | 503 W/m² | - |
| 1777818726 | 21.11° C | 55% | 1022 hPa | 0 mm | - | 486 W/m² | - |
| 1777818422 | 20.56° C | 55% | 1022.2 hPa | 0 mm | - | 466 W/m² | - |
| 1777818119 | 20.56° C | 56% | 1022 hPa | 0 mm | - | 448 W/m² | - |
| 1777817815 | 20.56° C | 57% | 1022 hPa | 0 mm | - | 430 W/m² | - |
| 1777817513 | 20° C | 58% | 1021.9 hPa | 0 mm | - | 410 W/m² | - |
| 1777817209 | 19.44° C | 58% | 1022.1 hPa | 0 mm | - | 387 W/m² | - |
| 1777816907 | 19.44° C | 59% | 1022.1 hPa | 0 mm | - | 368 W/m² | - |
| 1777816603 | 18.89° C | 61% | 1021.9 hPa | 0 mm | - | 349 W/m² | - |
| 1777816300 | 18.89° C | 60% | 1021.9 hPa | 0 mm | - | 328 W/m² | - |
| 1777815998 | 18.33° C | 62% | 1021.8 hPa | 0 mm | - | 308 W/m² | - |
* Rain latest hour (hover to see other rain measurements)
** Current wind speed in m/s (hover to see current wind gust speed)